Tracking 28531 objects as of 27-Feb-2024
HD Live streaming from Space Station
objects crossing your sky now

STARLINK-4740

Track STARLINK-4740 now!
10-day predictions
STARLINK-4740 is classified as:


NORAD ID: 53871
Int'l Code: 2022-114BF
Perigee: 545.7 km
Apogee: 547.9 km
Inclination: 53.2 °
Period: 95.4 minutes
Semi major axis: 6917 km
RCS: Unknown
Launch date: September 19, 2022
Source: United States (US)
Launch site: AIR FORCE EASTERN TEST RANGE (AFETR)
Your satellite tracking list
Your tracking list is empty




NASA's NSSDC Master Catalog

Two Line Element Set (TLE):
1 53871U 22114BF  24057.24392893  .00003057  00000-0  20998-3 0  9998
2 53871  53.2183 356.7070 0001609 118.6161 241.4993 15.08855195 81318
Source of the keplerian elements: AFSPC